| time (UTC) | temp F | wind direction | speed MPH | gust MPH | rain 1hr in | rain 24hr in | rain mn in | humidity % | barometer mb |
| 20260509155858 | 59 | 238 | 5.0 | 8.0 | 0.00 | 0.00 | 0.00 | 71 | 972.8 |
| 20260509155357 | 58 | 271 | 4.0 | 6.0 | 0.00 | 0.00 | 0.00 | 71 | 972.7 |
| 20260509154857 | 58 | 230 | 3.0 | 5.0 | 0.00 | 0.00 | 0.00 | 72 | 972.7 |
| 20260509154357 | 59 | 215 | 3.0 | 4.0 | 0.00 | 0.00 | 0.00 | 72 | 972.8 |
| 20260509153856 | 59 | 197 | 4.0 | 7.0 | 0.00 | 0.00 | 0.00 | 71 | 972.9 |
| 20260509153356 | 59 | 221 | 4.0 | 7.0 | 0.00 | 0.00 | 0.00 | 71 | 972.8 |
| 20260509152855 | 59 | 232 | 3.0 | 5.0 | 0.00 | 0.00 | 0.00 | 72 | 972.7 |
| 20260509152355 | 59 | 243 | 3.0 | 6.0 | 0.00 | 0.00 | 0.00 | 71 | 972.7 |
| 20260509151855 | 59 | 247 | 3.0 | 4.0 | 0.00 | 0.00 | 0.00 | 73 | 972.7 |
| 20260509151355 | 58 | 182 | 6.0 | 9.0 | 0.00 | 0.00 | 0.00 | 73 | 972.6 |
| 20260509150854 | 58 | 199 | 3.0 | 5.0 | 0.00 | 0.00 | 0.00 | 74 | 972.6 |
| 20260509150354 | 58 | 183 | 5.0 | 8.0 | 0.00 | 0.00 | 0.00 | 74 | 972.8 |
| 20260509145853 | 57 | 254 | 3.0 | 5.0 | 0.00 | 0.00 | 0.00 | 75 | 972.9 |
| 20260509145353 | 57 | 239 | 3.0 | 5.0 | 0.00 | 0.00 | 0.00 | 75 | 972.8 |
| 20260509144853 | 57 | 246 | 5.0 | 11.0 | 0.00 | 0.00 | 0.00 | 74 | 972.8 |
| 20260509144353 | 57 | 239 | 3.0 | 5.0 | 0.00 | 0.00 | 0.00 | 74 | 972.7 |
| 20260509143853 | 57 | 222 | 3.0 | 6.0 | 0.00 | 0.00 | 0.00 | 74 | 972.7 |
| 20260509143353 | 56 | 193 | 3.0 | 5.0 | 0.00 | 0.00 | 0.00 | 75 | 972.7 |
| 20260509142852 | 56 | 182 | 5.0 | 9.0 | 0.00 | 0.00 | 0.00 | 75 | 972.8 |
| 20260509142351 | 55 | 225 | 3.0 | 6.0 | 0.00 | 0.00 | 0.00 | 76 | 972.9 |
| 20260509141851 | 55 | 256 | 4.0 | 9.0 | 0.00 | 0.00 | 0.00 | 77 | 972.9 |
| 20260509141351 | 54 | 189 | 3.0 | 7.0 | 0.00 | 0.00 | 0.00 | 79 | 973.0 |
| 20260509140329 | 53 | 266 | 8.0 | 12.0 | 0.00 | 0.00 | 0.00 | 79 | 973.0 |
| 20260509135829 | 53 | 241 | 6.0 | 8.0 | 0.00 | 0.00 | 0.00 | 80 | 973.1 |
| 20260509134806 | 52 | 269 | 3.0 | 6.0 | 0.00 | 0.00 | 0.00 | 83 | 973.2 |
| 20260509134306 | 52 | 268 | 6.0 | 9.0 | 0.00 | 0.00 | 0.00 | 83 | 973.2 |
| 20260509133806 | 52 | 263 | 5.0 | 7.0 | 0.00 | 0.00 | 0.00 | 84 | 973.2 |
| 20260509133306 | 51 | 245 | 5.0 | 10.0 | 0.00 | 0.00 | 0.00 | 85 | 973.3 |
| 20260509132806 | 51 | 253 | 6.0 | 11.0 | 0.00 | 0.00 | 0.00 | 86 | 973.3 |
| 20260509132307 | 51 | 258 | 4.0 | 6.0 | 0.00 | 0.00 | 0.00 | 86 | 973.3 |
| 20260509131244 | 50 | 225 | 4.0 | 7.0 | 0.00 | 0.00 | 0.00 | 88 | 973.3 |
| 20260509130744 | 50 | 260 | 6.0 | 9.0 | 0.00 | 0.00 | 0.00 | 89 | 973.4 |
| 20260509130243 | 50 | 271 | 7.0 | 8.0 | 0.00 | 0.00 | 0.00 | 90 | 973.4 |
| 20260509125743 | 49 | 262 | 6.0 | 10.0 | 0.00 | 0.00 | 0.00 | 91 | 973.4 |
| 20260509125243 | 49 | 234 | 4.0 | 7.0 | 0.00 | 0.00 | 0.00 | 92 | 973.3 |
| 20260509124743 | 49 | 256 | 7.0 | 9.0 | 0.00 | 0.00 | 0.00 | 92 | 973.3 |
| 20260509124243 | 49 | 242 | 4.0 | 8.0 | 0.00 | 0.00 | 0.00 | 92 | 973.4 |
| 20260509123221 | 49 | 278 | 4.0 | 8.0 | 0.00 | 0.00 | 0.00 | 92 | 973.5 |
| 20260509122720 | 49 | 285 | 4.0 | 7.0 | 0.00 | 0.00 | 0.00 | 92 | 973.5 |
| 20260509122220 | 49 | 227 | 2.0 | 3.0 | 0.00 | 0.00 | 0.00 | 93 | 973.5 |
| 20260509121158 | 49 | 254 | 2.0 | 3.0 | 0.00 | 0.00 | 0.00 | 93 | 973.6 |
| 20260509120658 | 49 | 261 | 3.0 | 5.0 | 0.00 | 0.00 | 0.00 | 93 | 973.6 |
| 20260509115114 | 49 | 259 | 4.0 | 9.0 | 0.00 | 0.00 | 0.00 | 93 | 973.6 |
| 20260509114614 | 49 | 255 | 5.0 | 8.0 | 0.00 | 0.00 | 0.00 | 93 | 973.8 |
| 20260509114114 | 49 | 264 | 3.0 | 5.0 | 0.00 | 0.00 | 0.00 | 93 | 973.9 |
| 20260509113614 | 49 | 258 | 5.0 | 8.0 | 0.00 | 0.00 | 0.00 | 92 | 973.8 |
| 20260509113113 | 49 | 257 | 6.0 | 8.0 | 0.00 | 0.00 | 0.00 | 92 | 973.7 |
| 20260509112613 | 49 | 259 | 5.0 | 6.0 | 0.00 | 0.00 | 0.00 | 92 | 973.6 |
| 20260509112113 | 49 | 261 | 4.0 | 6.0 | 0.00 | 0.00 | 0.00 | 92 | 973.5 |
| 20260509111051 | 49 | 240 | 4.0 | 8.0 | 0.00 | 0.00 | 0.00 | 91 | 973.4 |
| 20260509110551 | 49 | 183 | 4.0 | 5.0 | 0.00 | 0.00 | 0.00 | 91 | 973.3 |
| 20260509110051 | 50 | 222 | 2.0 | 3.0 | 0.00 | 0.00 | 0.00 | 91 | 973.3 |
| 20260509105551 | 50 | 185 | 3.0 | 4.0 | 0.00 | 0.00 | 0.00 | 91 | 973.3 |
| 20260509105051 | 50 | 235 | 2.0 | 4.0 | 0.00 | 0.00 | 0.00 | 90 | 973.3 |
| 20260509104550 | 50 | 217 | 3.0 | 5.0 | 0.00 | 0.00 | 0.00 | 90 | 973.3 |
| 20260509103528 | 49 | 178 | 3.0 | 4.0 | 0.00 | 0.00 | 0.00 | 90 | 973.3 |
| 20260509102507 | 49 | 203 | 2.0 | 3.0 | 0.00 | 0.00 | 0.00 | 90 | 973.5 |
| 20260509102007 | 49 | 198 | 2.0 | 3.0 | 0.00 | 0.00 | 0.00 | 90 | 973.5 |
| 20260509101507 | 49 | 178 | 1.0 | 3.0 | 0.00 | 0.00 | 0.00 | 89 | 973.5 |
| 20260509101007 | 50 | 218 | 2.0 | 3.0 | 0.00 | 0.00 | 0.00 | 89 | 973.6 |
| 20260509100507 | 50 | 216 | 3.0 | 4.0 | 0.00 | 0.00 | 0.00 | 89 | 973.6 |
| 20260509095445 | 50 | 227 | 2.0 | 5.0 | 0.00 | 0.00 | 0.00 | 89 | 973.5 |
| 20260509094945 | 50 | 180 | 1.0 | 2.0 | 0.00 | 0.00 | 0.00 | 88 | 973.6 |
| 20260509094445 | 50 | 173 | 4.0 | 5.0 | 0.00 | 0.00 | 0.00 | 88 | 973.6 |
| 20260509093945 | 50 | 202 | 2.0 | 3.0 | 0.00 | 0.00 | 0.00 | 88 | 973.7 |
| 20260509093445 | 50 | 196 | 2.0 | 6.0 | 0.00 | 0.00 | 0.00 | 88 | 973.8 |
| 20260509092945 | 50 | 234 | 2.0 | 3.0 | 0.00 | 0.00 | 0.00 | 88 | 973.8 |
| 20260509092444 | 50 | 241 | 3.0 | 5.0 | 0.00 | 0.00 | 0.00 | 88 | 973.8 |
| 20260509091944 | 50 | 208 | 2.0 | 2.0 | 0.00 | 0.00 | 0.00 | 88 | 973.9 |
| 20260509091444 | 50 | 237 | 2.0 | 4.0 | 0.00 | 0.00 | 0.00 | 88 | 973.9 |
| 20260509090943 | 50 | 189 | 2.0 | 4.0 | 0.00 | 0.00 | 0.00 | 88 | 973.8 |
| 20260509090443 | 49 | 173 | 3.0 | 4.0 | 0.00 | 0.00 | 0.00 | 88 | 973.8 |
| 20260509085943 | 49 | 270 | 2.0 | 4.0 | 0.00 | 0.00 | 0.00 | 88 | 973.8 |
| 20260509084922 | 49 | 176 | 3.0 | 5.0 | 0.00 | 0.00 | 0.00 | 88 | 973.8 |
| 20260509083901 | 49 | 188 | 4.0 | 8.0 | 0.00 | 0.00 | 0.00 | 87 | 973.8 |
| 20260509083401 | 49 | 185 | 4.0 | 6.0 | 0.00 | 0.00 | 0.00 | 87 | 973.8 |
| 20260509082901 | 50 | 175 | 6.0 | 8.0 | 0.00 | 0.00 | 0.00 | 87 | 973.8 |
| 20260509082400 | 50 | 176 | 4.0 | 7.0 | 0.00 | 0.00 | 0.00 | 86 | 973.8 |
| 20260509081900 | 50 | 175 | 4.0 | 6.0 | 0.00 | 0.00 | 0.00 | 86 | 973.7 |
| 20260509081400 | 50 | 185 | 2.0 | 3.0 | 0.00 | 0.00 | 0.00 | 86 | 973.8 |
| 20260509080900 | 50 | 176 | 5.0 | 8.0 | 0.00 | 0.00 | 0.00 | 85 | 973.7 |
| 20260509080400 | 50 | 199 | 3.0 | 4.0 | 0.00 | 0.00 | 0.00 | 85 | 973.8 |
| 20260509075859 | 50 | 176 | 3.0 | 5.0 | 0.00 | 0.00 | 0.00 | 85 | 973.9 |
| 20260509074837 | 50 | 181 | 5.0 | 6.0 | 0.00 | 0.00 | 0.00 | 84 | 974.0 |
| 20260509073255 | 49 | 193 | 3.0 | 6.0 | 0.00 | 0.00 | 0.00 | 83 | 974.1 |
| 20260509072755 | 49 | 189 | 4.0 | 6.0 | 0.00 | 0.00 | 0.00 | 82 | 974.2 |
| 20260509072255 | 49 | 198 | 3.0 | 6.0 | 0.00 | 0.00 | 0.00 | 82 | 974.2 |
| 20260509071755 | 49 | 187 | 3.0 | 4.0 | 0.00 | 0.00 | 0.00 | 81 | 974.2 |
| 20260509071254 | 49 | 196 | 3.0 | 5.0 | 0.00 | 0.00 | 0.00 | 80 | 974.2 |
| 20260509070754 | 49 | 180 | 6.0 | 8.0 | 0.00 | 0.00 | 0.00 | 80 | 974.2 |
| 20260509070254 | 49 | 181 | 5.0 | 8.0 | 0.00 | 0.00 | 0.00 | 80 | 974.2 |
| 20260509065754 | 49 | 186 | 3.0 | 5.0 | 0.00 | 0.00 | 0.00 | 79 | 974.4 |
| 20260509065253 | 49 | 180 | 5.0 | 6.0 | 0.00 | 0.00 | 0.00 | 79 | 974.4 |
| 20260509064753 | 49 | 182 | 5.0 | 7.0 | 0.00 | 0.00 | 0.00 | 78 | 974.5 |
| 20260509063731 | 49 | 193 | 4.0 | 5.0 | 0.00 | 0.00 | 0.00 | 78 | 974.5 |
| 20260509063231 | 49 | 187 | 3.0 | 4.0 | 0.00 | 0.00 | 0.00 | 78 | 974.5 |
| 20260509062731 | 49 | 181 | 4.0 | 6.0 | 0.00 | 0.00 | 0.00 | 78 | 974.5 |
| 20260509062231 | 49 | 178 | 5.0 | 7.0 | 0.00 | 0.00 | 0.00 | 78 | 974.6 |
| 20260509061730 | 49 | 188 | 2.0 | 4.0 | 0.00 | 0.00 | 0.00 | 78 | 974.6 |
| 20260509061230 | 48 | 188 | 3.0 | 5.0 | 0.00 | 0.00 | 0.00 | 78 | 974.6 |
| 20260509060730 | 48 | 179 | 2.0 | 4.0 | 0.00 | 0.00 | 0.00 | 78 | 974.8 |
| 20260509060230 | 48 | 179 | 3.0 | 4.0 | 0.00 | 0.00 | 0.00 | 77 | 974.9 |
| 20260509055209 | 48 | 185 | 3.0 | 3.0 | 0.00 | 0.00 | 0.00 | 77 | 975.1 |
| 20260509054709 | 48 | 191 | 1.0 | 2.0 | 0.00 | 0.00 | 0.00 | 77 | 975.1 |
| 20260509054208 | 48 | 187 | 2.0 | 3.0 | 0.00 | 0.00 | 0.00 | 77 | 975.2 |
| 20260509053708 | 48 | 151 | 2.0 | 2.0 | 0.00 | 0.00 | 0.00 | 77 | 975.3 |
| 20260509052647 | 47 | 0 | 0.0 | 0.0 | 0.00 | 0.00 | 0.00 | 77 | 975.4 |
| 20260509052147 | 47 | 0 | 0.0 | 0.0 | 0.00 | 0.00 | 0.00 | 77 | 975.4 |
| 20260509051647 | 47 | 194 | 1.0 | 3.0 | 0.00 | 0.00 | 0.00 | 77 | 975.4 |
| 20260509051147 | 47 | 213 | 1.0 | 3.0 | 0.00 | 0.00 | 0.00 | 76 | 975.4 |
| 20260509050646 | 47 | 186 | 4.0 | 5.0 | 0.00 | 0.00 | 0.00 | 76 | 975.4 |
| 20260509050146 | 47 | 199 | 3.0 | 4.0 | 0.00 | 0.00 | 0.00 | 76 | 975.5 |
| 20260509045646 | 47 | 192 | 3.0 | 5.0 | 0.00 | 0.00 | 0.00 | 75 | 975.5 |
| 20260509045146 | 47 | 187 | 2.0 | 3.0 | 0.00 | 0.00 | 0.00 | 75 | 975.6 |
| 20260509044646 | 47 | 183 | 2.0 | 3.0 | 0.00 | 0.00 | 0.00 | 75 | 975.7 |
| 20260509044146 | 47 | 162 | 2.0 | 3.0 | 0.00 | 0.00 | 0.00 | 75 | 975.8 |
| 20260509043645 | 47 | 187 | 2.0 | 3.0 | 0.00 | 0.00 | 0.00 | 75 | 975.8 |
| 20260509043144 | 47 | 182 | 3.0 | 4.0 | 0.00 | 0.00 | 0.00 | 75 | 975.7 |
| 20260509041602 | 47 | 203 | 2.0 | 3.0 | 0.00 | 0.00 | 0.00 | 74 | 975.9 |
| 20260509041101 | 47 | 192 | 4.0 | 6.0 | 0.00 | 0.00 | 0.00 | 74 | 975.8 |
| 20260509040601 | 47 | 185 | 5.0 | 7.0 | 0.00 | 0.00 | 0.00 | 74 | 975.9 |
| 20260509040101 | 47 | 192 | 2.0 | 3.0 | 0.00 | 0.00 | 0.00 | 74 | 976.1 |
| 20260509035601 | 47 | 194 | 3.0 | 3.0 | 0.00 | 0.00 | 0.00 | 73 | 976.1 |
| 20260509035100 | 47 | 173 | 3.0 | 5.0 | 0.00 | 0.00 | 0.00 | 73 | 976.1 |
| 20260509034600 | 47 | 191 | 4.0 | 5.0 | 0.00 | 0.00 | 0.00 | 73 | 976.1 |
| 20260509034100 | 47 | 179 | 3.0 | 3.0 | 0.00 | 0.00 | 0.00 | 73 | 976.1 |
| 20260509033600 | 47 | 186 | 3.0 | 4.0 | 0.00 | 0.00 | 0.00 | 72 | 976.1 |
| 20260509033059 | 48 | 183 | 5.0 | 8.0 | 0.00 | 0.00 | 0.00 | 72 | 976.1 |
| 20260509032559 | 48 | 184 | 4.0 | 4.0 | 0.00 | 0.00 | 0.00 | 71 | 976.2 |
| 20260509032059 | 48 | 185 | 4.0 | 6.0 | 0.00 | 0.00 | 0.00 | 70 | 976.2 |
| 20260509031558 | 48 | 210 | 3.0 | 3.0 | 0.00 | 0.00 | 0.00 | 70 | 976.2 |
| 20260509031058 | 48 | 213 | 2.0 | 4.0 | 0.00 | 0.00 | 0.00 | 69 | 976.3 |
| 20260509030037 | 49 | 203 | 2.0 | 4.0 | 0.00 | 0.00 | 0.00 | 68 | 976.4 |
| 20260509025537 | 49 | 219 | 2.0 | 4.0 | 0.00 | 0.00 | 0.00 | 67 | 976.4 |
| 20260509025036 | 49 | 198 | 2.0 | 3.0 | 0.00 | 0.00 | 0.00 | 67 | 976.5 |
| 20260509024536 | 49 | 208 | 2.0 | 3.0 | 0.00 | 0.00 | 0.00 | 66 | 976.5 |
| 20260509024036 | 49 | 193 | 1.0 | 2.0 | 0.00 | 0.00 | 0.00 | 66 | 976.5 |
| 20260509023536 | 49 | 202 | 3.0 | 5.0 | 0.00 | 0.00 | 0.00 | 65 | 976.6 |
| 20260509023035 | 49 | 164 | 1.0 | 2.0 | 0.00 | 0.00 | 0.00 | 65 | 976.6 |
| 20260509022534 | 49 | 222 | 1.0 | 2.0 | 0.00 | 0.00 | 0.00 | 65 | 976.6 |
| 20260509022034 | 49 | 200 | 2.0 | 3.0 | 0.00 | 0.00 | 0.00 | 64 | 976.6 |
| 20260509021534 | 49 | 197 | 3.0 | 4.0 | 0.00 | 0.00 | 0.00 | 64 | 976.5 |
| 20260509021033 | 49 | 190 | 3.0 | 4.0 | 0.00 | 0.00 | 0.00 | 63 | 976.4 |
| 20260509020012 | 50 | 219 | 2.0 | 4.0 | 0.00 | 0.00 | 0.00 | 62 | 976.4 |
| 20260509015512 | 50 | 186 | 3.0 | 5.0 | 0.00 | 0.00 | 0.00 | 62 | 976.3 |
| 20260509015012 | 50 | 186 | 1.0 | 2.0 | 0.00 | 0.00 | 0.00 | 61 | 976.2 |
| 20260509014512 | 50 | 186 | 2.0 | 2.0 | 0.00 | 0.00 | 0.00 | 61 | 976.2 |
| 20260509014012 | 50 | 191 | 3.0 | 4.0 | 0.00 | 0.00 | 0.00 | 60 | 976.1 |
| 20260509013511 | 50 | 168 | 3.0 | 5.0 | 0.00 | 0.00 | 0.00 | 60 | 976.1 |
| 20260509013011 | 50 | 188 | 4.0 | 5.0 | 0.00 | 0.00 | 0.00 | 60 | 976.1 |
| 20260509012511 | 50 | 182 | 3.0 | 5.0 | 0.00 | 0.00 | 0.00 | 59 | 976.0 |
| 20260509012011 | 50 | 185 | 2.0 | 3.0 | 0.00 | 0.00 | 0.00 | 59 | 976.0 |
| 20260509011511 | 50 | 189 | 3.0 | 3.0 | 0.00 | 0.00 | 0.00 | 59 | 976.0 |
| 20260509011011 | 50 | 197 | 2.0 | 3.0 | 0.00 | 0.00 | 0.00 | 58 | 975.9 |
| 20260509005428 | 51 | 192 | 1.0 | 2.0 | 0.00 | 0.00 | 0.00 | 56 | 975.8 |
| 20260509004927 | 51 | 191 | 2.0 | 4.0 | 0.00 | 0.00 | 0.00 | 55 | 975.8 |
| 20260509004427 | 51 | 195 | 2.0 | 3.0 | 0.00 | 0.00 | 0.00 | 55 | 975.8 |
| 20260509003927 | 52 | 188 | 4.0 | 7.0 | 0.00 | 0.00 | 0.00 | 54 | 975.7 |
| 20260509003427 | 52 | 186 | 3.0 | 6.0 | 0.00 | 0.00 | 0.00 | 53 | 975.7 |
| 20260509002927 | 52 | 188 | 3.0 | 4.0 | 0.00 | 0.00 | 0.00 | 53 | 975.8 |
| 20260509002427 | 52 | 217 | 1.0 | 3.0 | 0.00 | 0.00 | 0.00 | 53 | 975.8 |
| 20260509001926 | 53 | 192 | 2.0 | 5.0 | 0.00 | 0.00 | 0.00 | 52 | 975.8 |
| 20260509001426 | 53 | 207 | 3.0 | 5.0 | 0.00 | 0.00 | 0.00 | 51 | 975.8 |
| 20260509000926 | 53 | 197 | 3.0 | 5.0 | 0.00 | 0.00 | 0.00 | 51 | 975.8 |
| 20260509000426 | 54 | 193 | 5.0 | 7.0 | 0.00 | 0.00 | 0.00 | 50 | 975.8 |
| 20260508235926 | 54 | 212 | 4.0 | 6.0 | 0.00 | 0.00 | 0.00 | 49 | 975.8 |
| 20260508235425 | 54 | 236 | 3.0 | 5.0 | 0.00 | 0.00 | 0.00 | 49 | 975.8 |
| 20260508234402 | 55 | 184 | 5.0 | 8.0 | 0.00 | 0.00 | 0.00 | 47 | 975.8 |
| 20260508233902 | 55 | 197 | 3.0 | 4.0 | 0.00 | 0.00 | 0.00 | 48 | 975.8 |
| 20260508232320 | 56 | 193 | 4.0 | 6.0 | 0.00 | 0.00 | 0.00 | 46 | 975.7 |
| 20260508231258 | 56 | 222 | 3.0 | 6.0 | 0.00 | 0.00 | 0.00 | 44 | 975.7 |
| 20260508230758 | 56 | 189 | 2.0 | 4.0 | 0.00 | 0.00 | 0.00 | 43 | 975.7 |
| 20260508230258 | 56 | 212 | 3.0 | 6.0 | 0.00 | 0.00 | 0.00 | 44 | 975.6 |
| 20260508225758 | 56 | 323 | 2.0 | 4.0 | 0.00 | 0.00 | 0.00 | 45 | 975.6 |
| 20260508225258 | 57 | 174 | 5.0 | 9.0 | 0.00 | 0.00 | 0.00 | 43 | 975.5 |
| 20260508224757 | 57 | 202 | 4.0 | 7.0 | 0.00 | 0.00 | 0.00 | 43 | 975.6 |
| 20260508224256 | 57 | 264 | 4.0 | 8.0 | 0.00 | 0.00 | 0.00 | 43 | 975.6 |
| 20260508223757 | 57 | 215 | 3.0 | 5.0 | 0.00 | 0.00 | 0.00 | 42 | 975.6 |
| 20260508223256 | 56 | 248 | 4.0 | 10.0 | 0.00 | 0.00 | 0.00 | 42 | 975.7 |
| 20260508222756 | 56 | 279 | 7.0 | 13.0 | 0.00 | 0.00 | 0.00 | 41 | 975.7 |
| 20260508222256 | 57 | 276 | 6.0 | 13.0 | 0.00 | 0.00 | 0.00 | 40 | 975.8 |
| 20260508221756 | 57 | 270 | 5.0 | 8.0 | 0.00 | 0.00 | 0.00 | 40 | 975.8 |
| 20260508221256 | 57 | 246 | 4.0 | 7.0 | 0.00 | 0.00 | 0.00 | 41 | 975.8 |
| 20260508220756 | 56 | 252 | 3.0 | 7.0 | 0.00 | 0.00 | 0.00 | 42 | 975.8 |
| 20260508220255 | 57 | 262 | 5.0 | 9.0 | 0.00 | 0.00 | 0.00 | 42 | 975.8 |
| 20260508215755 | 57 | 259 | 6.0 | 10.0 | 0.00 | 0.00 | 0.00 | 40 | 975.8 |
| 20260508215255 | 57 | 255 | 4.0 | 7.0 | 0.00 | 0.00 | 0.00 | 40 | 975.8 |
| 20260508214755 | 56 | 202 | 4.0 | 7.0 | 0.00 | 0.00 | 0.00 | 40 | 975.9 |
| 20260508214255 | 57 | 272 | 4.0 | 8.0 | 0.00 | 0.00 | 0.00 | 41 | 975.9 |
| 20260508213755 | 57 | 263 | 7.0 | 9.0 | 0.00 | 0.00 | 0.00 | 40 | 975.8 |
| 20260508213254 | 57 | 241 | 3.0 | 5.0 | 0.00 | 0.00 | 0.00 | 42 | 975.8 |
| 20260508212754 | 57 | 208 | 3.0 | 6.0 | 0.00 | 0.00 | 0.00 | 41 | 975.8 |
| 20260508210129 | 57 | 234 | 4.0 | 7.0 | 0.00 | 0.00 | 0.00 | 43 | 975.9 |
| 20260508205629 | 57 | 268 | 6.0 | 13.0 | 0.00 | 0.00 | 0.00 | 42 | 975.8 |
| 20260508205129 | 57 | 272 | 5.0 | 11.0 | 0.00 | 0.00 | 0.00 | 41 | 975.9 |
| 20260508204107 | 57 | 196 | 6.0 | 8.0 | 0.00 | 0.00 | 0.00 | 43 | 975.9 |
| 20260508203607 | 56 | 237 | 4.0 | 6.0 | 0.00 | 0.00 | 0.00 | 44 | 975.9 |
| 20260508203107 | 56 | 223 | 3.0 | 7.0 | 0.00 | 0.00 | 0.00 | 46 | 976.0 |
| 20260508202606 | 55 | 237 | 4.0 | 9.0 | 0.00 | 0.00 | 0.00 | 45 | 976.0 |
| 20260508202106 | 56 | 272 | 4.0 | 8.0 | 0.00 | 0.00 | 0.00 | 44 | 975.9 |
| 20260508201606 | 56 | 279 | 5.0 | 7.0 | 0.00 | 0.00 | 0.00 | 43 | 976.0 |
| 20260508201106 | 56 | 261 | 2.0 | 5.0 | 0.00 | 0.00 | 0.00 | 44 | 976.0 |
| 20260508200606 | 57 | 208 | 3.0 | 7.0 | 0.00 | 0.00 | 0.00 | 42 | 976.0 |
| 20260508200105 | 57 | 252 | 5.0 | 7.0 | 0.00 | 0.00 | 0.00 | 42 | 976.1 |
| 20260508195605 | 57 | 269 | 6.0 | 10.0 | 0.00 | 0.00 | 0.00 | 43 | 976.1 |
| 20260508195105 | 57 | 257 | 5.0 | 8.0 | 0.00 | 0.00 | 0.00 | 43 | 976.2 |
| 20260508194605 | 57 | 182 | 5.0 | 7.0 | 0.00 | 0.00 | 0.00 | 44 | 976.3 |
| 20260508194105 | 57 | 198 | 3.0 | 5.0 | 0.00 | 0.00 | 0.00 | 45 | 976.3 |
| 20260508193605 | 57 | 277 | 9.0 | 14.0 | 0.00 | 0.00 | 0.00 | 44 | 976.3 |
| 20260508193104 | 57 | 193 | 4.0 | 6.0 | 0.00 | 0.00 | 0.00 | 40 | 976.4 |
| 20260508192604 | 57 | 189 | 4.0 | 6.0 | 0.00 | 0.00 | 0.00 | 41 | 976.4 |
| 20260508192104 | 57 | 186 | 4.0 | 8.0 | 0.00 | 0.00 | 0.00 | 40 | 976.5 |
| 20260508191604 | 57 | 241 | 4.0 | 8.0 | 0.00 | 0.00 | 0.00 | 42 | 976.5 |
| 20260508191103 | 57 | 226 | 5.0 | 8.0 | 0.00 | 0.00 | 0.00 | 39 | 976.6 |
| 20260508190603 | 58 | 258 | 3.0 | 10.0 | 0.00 | 0.00 | 0.00 | 37 | 976.7 |
| 20260508190103 | 58 | 207 | 4.0 | 5.0 | 0.00 | 0.00 | 0.00 | 36 | 976.7 |
| 20260508185042 | 58 | 300 | 6.0 | 8.0 | 0.00 | 0.00 | 0.00 | 22 | 976.7 |
| 20260508184542 | 58 | 323 | 2.0 | 6.0 | 0.00 | 0.00 | 0.00 | 22 | 976.7 |
| 20260508184042 | 58 | 242 | 5.0 | 9.0 | 0.00 | 0.00 | 0.00 | 24 | 976.8 |
| 20260508183542 | 57 | 321 | 6.0 | 8.0 | 0.00 | 0.00 | 0.00 | 24 | 976.9 |
| 20260508182520 | 57 | 342 | 6.0 | 9.0 | 0.00 | 0.00 | 0.00 | 24 | 977.1 |
| 20260508182020 | 57 | 350 | 8.0 | 12.0 | 0.00 | 0.00 | 0.00 | 25 | 977.1 |
| 20260508181520 | 56 | 337 | 6.0 | 8.0 | 0.00 | 0.00 | 0.00 | 26 | 977.1 |
| 20260508181020 | 56 | 293 | 9.0 | 12.0 | 0.00 | 0.00 | 0.00 | 24 | 977.2 |
| 20260508180519 | 56 | 247 | 3.0 | 4.0 | 0.00 | 0.00 | 0.00 | 25 | 977.3 |
| 20260508180019 | 56 | 305 | 6.0 | 9.0 | 0.00 | 0.00 | 0.00 | 25 | 977.4 |
| 20260508175519 | 56 | 329 | 3.0 | 6.0 | 0.00 | 0.00 | 0.00 | 27 | 977.4 |
| 20260508175019 | 57 | 332 | 7.0 | 10.0 | 0.00 | 0.00 | 0.00 | 27 | 977.4 |
| 20260508174519 | 56 | 304 | 7.0 | 11.0 | 0.00 | 0.00 | 0.00 | 27 | 977.4 |
| 20260508174019 | 56 | 340 | 5.0 | 7.0 | 0.00 | 0.00 | 0.00 | 26 | 977.5 |
| 20260508173519 | 56 | 30 | 4.0 | 7.0 | 0.00 | 0.00 | 0.00 | 24 | 977.6 |
| 20260508173018 | 55 | 312 | 6.0 | 9.0 | 0.00 | 0.00 | 0.00 | 26 | 977.7 |
| 20260508172518 | 56 | 324 | 8.0 | 12.0 | 0.00 | 0.00 | 0.00 | 25 | 977.7 |
| 20260508172018 | 55 | 345 | 6.0 | 10.0 | 0.00 | 0.00 | 0.00 | 25 | 977.7 |
| 20260508171518 | 55 | 318 | 4.0 | 6.0 | 0.00 | 0.00 | 0.00 | 28 | 977.8 |
| 20260508171018 | 54 | 336 | 4.0 | 6.0 | 0.00 | 0.00 | 0.00 | 27 | 977.8 |
| 20260508170517 | 55 | 321 | 2.0 | 4.0 | 0.00 | 0.00 | 0.00 | 28 | 977.8 |
| 20260508170017 | 54 | 187 | 4.0 | 5.0 | 0.00 | 0.00 | 0.00 | 31 | 977.9 |
| 20260508165517 | 54 | 312 | 6.0 | 8.0 | 0.00 | 0.00 | 0.00 | 30 | 977.9 |
| 20260508165017 | 54 | 326 | 5.0 | 9.0 | 0.00 | 0.00 | 0.00 | 31 | 978.0 |
| 20260508164516 | 54 | 11 | 3.0 | 6.0 | 0.00 | 0.00 | 0.00 | 29 | 978.1 |
| 20260508164016 | 54 | 279 | 8.0 | 13.0 | 0.00 | 0.00 | 0.00 | 28 | 978.2 |
| 20260508163515 | 54 | 317 | 7.0 | 9.0 | 0.00 | 0.00 | 0.00 | 29 | 978.2 |
| 20260508163015 | 55 | 269 | 4.0 | 8.0 | 0.00 | 0.00 | 0.00 | 32 | 978.2 |
| 20260508162515 | 54 | 229 | 3.0 | 5.0 | 0.00 | 0.00 | 0.00 | 33 | 978.3 |
| 20260508162015 | 54 | 290 | 3.0 | 4.0 | 0.00 | 0.00 | 0.00 | 32 | 978.4 |
| 20260508161515 | 54 | 291 | 4.0 | 7.0 | 0.00 | 0.00 | 0.00 | 31 | 978.5 |
| 20260508161015 | 54 | 321 | 4.0 | 5.0 | 0.00 | 0.00 | 0.00 | 30 | 978.5 |